Location: Ash Swamp
(41.5170°N, 74.6157°W)
Time: 16:45:40
(UTC+00:00)

Cosmos 1975 - Pass Details

Date: 14 July 2020
Orbit: 542 x 561 km, 82.5° (Epoch: 05 August)

Event Time Altitude Azimuth Distance (km) Brightness Sun altitude
Exits shadow 08:32:58 10° 195° (SSW) 1,785 4.9 -10.6°
Maximum altitude 08:36:51 68° 278° (W) 591 2.8 -10.0°
Drops below altitude 10° 08:40:50 10° 3° (N) 1,816 6.1 -9.5°
Sets 08:43:01 0° 6° (N) 2,712 7.1 -9.2°
